Probability
0 0 0 0 0 0 0 0 0 0 0 0 0 0 0 0 0 0 0 0 0 1 1 1 0 0 0 0 1 2 3 5 6 4 1 0 0 0 0 0 0 0 0
0 0 0 0 0 0 0 0 0 0 0 0 0 0 0 0 0 0 0 0 0 0 0 0 0 0 0 1 2 2 3 4 4 3 1 0 0 0 0 0 0 0 0
0 0 0 0 0 0 0 0 0 0 0 0 0 0 0 0 0 0 0 0 0 0 0 0 0 0 1 2 2 2 3 3 2 1 1 0 0 0 1 1 0 0 0
0 0 0 0 0 0 0 0 0 0 0 0 0 0 0 0 0 0 0 0 0 0 0 0 0 0 1 2 2 2 2 2 1 0 1 0 0 0 1 2 1 1 0
0 0 0 0 0 0 0 0 0 0 0 0 0 0 0 0 0 0 0 0 0 0 0 0 0 0 0 1 1 1 1 1 0 0 0 0 0 0 1 2 2 2 1
0 0 0 0 0 0 0 0 0 0 0 0 0 0 0 0 0 0 0 0 0 0 0 0 0 0 0 0 0 0 1 1 1 0 0 0 0 0 0 1 2 2 2
0 0 0 0 0 0 0 0 0 0 0 0 0 0 0 0 0 0 0 0 0 0 0 0 0 0 0 0 0 0 0 1 1 1 0 0 0 0 0 0 1 1 1
0 0 0 0 0 0 0 0 0 0 0 0 0 0 0 0 0 0 0 0 0 0 0 0 0 0 0 0 0 0 0 0 1 1 0 0 0 0 0 0 0 0 0
0 0 0 0 0 0 0 0 0 0 0 0 0 0 0 0 0 0 0 0 0 0 0 0 0 0 0 0 0 0 0 0 0 0 0 0 0 0 0 0 0 0 0
0 0 0 0 0 0 0 0 0 0 0 0 0 0 0 0 0 0 0 0 0 0 0 0 0 0 0 0 0 0 0 0 0 0 0 0 0 0 1 0 0 0 0
0 0 0 0 0 0 0 0 0 0 0 0 0 0 0 0 0 0 0 0 0 0 0 0 0 0 0 0 0 0 0 0 0 0 0 0 0 0 0 0 0 0 0
0 0 0 0 0 0 0 0 0 0 0 0 0 0 0 0 0 0 0 0 0 0 0 0 0 0 0 0 0 0 0 0 0 0 0 0 0 0 0 0 0 0 0
0 0 0 0 0 0 0 0 0 0 0 0 0 0 0 0 0 0 0 0 0 0 0 0 0 0 0 0 0 0 0 0 0 0 0 0 0 0 0 0 0 0 0
0 0 0 0 0 0 0 0 0 0 0 0 0 0 0 0 0 0 0 0 0 0 0 0 0 0 0 0 0 0 0 0 0 0 0 0 0 0 0 0 0 0 0
0 0 0 0 0 0 0 0 0 0 0 0 0 0 0 0 0 0 0 0 0 0 0 0 0 0 0 0 0 0 0 0 0 0 0 1 0 0 0 0 0 0 0
0 0 0 0 0 0 0 0 0 0 0 0 0 0 0 0 0 0 0 0 0 0 0 0 0 0 0 0 0 0 0 0 0 0 0 0 0 0 0 0 0 0 0
0 0 0 0 0 0 0 0 0 0 0 0 0 0 0 0 0 0 0 0 0 0 0 0 0 0 0 0 0 0 0 0 0 0 0 0 0 0 0 0 0 0 0
0 0 0 0 0 0 0 0 0 0 0 0 0 0 0 0 0 0 0 0 0 0 0 0 0 0 0 0 0 0 0 0 0 0 0 0 0 0 0 0 0 0 0
0 0 0 0 0 0 0 0 0 0 0 0 0 0 0 0 0 0 0 0 0 0 0 0 0 0 0 0 0 0 0 0 0 0 0 0 0 0 0 0 0 0 0
0 0 0 0 0 0 0 0 0 0 0 0 0 0 0 0 0 0 0 0 0 0 0 0 0 0 0 0 0 0 0 0 0 0 0 0 0 0 0 0 0 0 0
0 0 0 0 0 0 0 0 0 0 0 0 0 0 0 0 0 0 0 0 0 0 0 0 0 0 0 0 0 0 0 0 0 0 0 0 0 0 0 0 0 0 0
0 0 0 0 0 0 0 0 0 0 0 0 0 0 0 0 0 0 0 0 0 0 0 0 0 0 0 0 0 0 0 0 0 0 0 0 0 0 0 0 0 0 0
0 0 0 0 0 0 0 0 0 0 0 0 0 0 0 0 0 0 0 0 0 0 0 0 0 0 0 0 0 0 0 0 0 0 0 0 0 0 0 0 0 0 0
0 0 0 0 0 0 0 0 0 0 0 0 0 0 0 0 0 0 0 0 0 0 0 0 0 0 0 0 0 0 0 0 0 0 0 0 0 0 0 0 0 0 0
0 0 0 0 0 0 0 0 0 0 0 0 0 0 0 0 0 0 0 0 0 0 0 0 0 0 0 0 0 0 0 0 0 0 0 0 0 0 0 0 0 0 0
0 0 0 0 0 0 0 0 0 0 0 0 0 0 0 0 0 0 0 0 0 0 0 0 0 0 0 0 0 0 0 0 0 0 0 0 0 0 0 0 0 0 0
Wind_Speed
4 6 4 2 3 4 5 5 5 5 4 3 3 3 4 4 3 3 4 4 3 3 3 3 3 3 2 2 3 2 2 2 2 1 2 3 3 2 3 3 1 1 3
3 4 4 3 4 4 4 5 5 5 4 3 3 3 3 3 3 3 3 4 4 3 4 3 3 3 2 2 2 2 1 2 2 2 1 1 1 2 4 2 2 2 2
2 4 4 3 3 3 4 5 4 5 5 5 3 4 3 3 3 3 3 3 4 3 3 3 3 3 2 2 2 2 2 2 2 3 3 3 3 1 2 3 3 3 2
2 2 2 3 3 3 4 5 5 5 5 6 4 5 4 4 4 3 3 3 3 3 3 3 3 3 2 2 3 2 2 2 2 2 2 2 1 2 1 2 3 3 3
2 2 3 3 3 4 4 4 5 5 5 5 5 4 3 3 3 4 4 4 3 4 4 3 3 2 2 2 3 2 2 2 3 2 2 1 1 2 2 2 2 1 2
3 2 3 3 2 3 3 3 3 4 4 5 6 5 4 5 5 5 4 4 3 3 4 4 3 2 2 2 2 2 2 2 3 2 2 2 2 2 2 2 2 2 1
3 2 2 2 2 2 2 3 3 4 4 5 6 6 5 5 5 5 5 4 3 3 3 3 4 3 2 2 2 2 2 2 3 3 2 3 3 2 2 2 2 1 1
3 2 2 2 1 1 2 2 3 3 4 4 5 5 6 4 4 5 5 4 3 3 3 3 4 3 3 3 2 2 2 2 2 3 2 2 2 2 2 3 2 2 1
3 3 2 2 1 1 1 2 3 3 4 4 4 3 4 4 5 5 5 4 4 4 4 4 4 3 3 3 2 1 2 2 2 2 2 2 2 2 2 2 3 3 3
3 3 2 2 1 1 1 1 1 2 2 3 4 4 3 4 4 5 5 5 5 4 4 4 4 4 3 3 1 1 1 1 2 1 2 2 2 2 2 2 3 3 3
2 3 3 2 1 1 0 1 0 1 2 3 4 4 4 4 4 4 5 5 4 4 4 4 4 4 4 3 2 1 1 1 2 1 1 2 2 2 1 2 2 2 3
3 3 3 2 1 0 1 0 0 1 1 2 3 3 4 4 4 5 5 5 4 4 4 4 4 4 4 4 3 2 1 1 1 1 1 1 1 1 2 2 3 3 3
3 3 3 3 2 1 1 0 1 1 2 2 3 3 4 4 5 5 5 6 6 5 4 4 4 5 4 4 4 3 1 1 2 1 1 1 1 1 1 1 2 2 2
3 3 3 3 3 2 1 1 1 0 1 1 2 2 3 3 4 5 5 5 6 6 5 5 5 5 5 5 5 5 3 2 2 1 1 1 0 1 1 1 1 1 2
3 3 4 3 3 3 2 2 1 0 0 0 1 2 3 3 4 5 5 5 5 6 6 5 5 5 4 5 5 5 4 3 2 1 1 1 1 2 1 1 1 1 1
3 3 3 3 3 3 3 3 2 1 1 0 1 1 2 2 3 4 4 4 5 5 5 5 5 5 5 8 8 6 4 3 2 2 1 1 1 2 3 3 2 3 3
2 2 2 2 2 2 3 3 3 2 1 1 1 1 1 2 3 4 4 4 4 4 4 5 5 4 5 7 8 9 5 3 2 2 1 1 1 1 1 2 2 2 4
3 3 2 2 1 2 2 2 2 2 1 1 0 1 1 2 2 3 4 4 3 3 3 3 3 3 4 7 8 9 5 3 3 2 2 1 2 2 2 2 1 1 1
3 3 2 2 1 1 1 1 2 2 2 1 0 0 1 0 2 2 3 3 3 4 3 3 3 2 3 6 7 8 4 3 3 3 4 3 3 5 6 2 1 1 1
3 3 2 1 2 1 1 2 1 1 2 2 1 0 0 1 2 2 2 3 3 3 3 2 2 2 2 4 5 7 3 3 3 3 3 5 4 5 6 2 1 0 0
4 3 2 1 1 1 1 2 1 0 1 1 0 1 2 2 2 2 2 3 3 3 3 3 2 1 1 2 3 4 2 3 3 3 2 2 5 5 5 4 1 0 0
3 2 2 1 1 1 1 2 1 0 1 1 1 2 3 3 2 2 3 3 3 4 4 3 2 1 1 1 1 1 2 3 2 2 2 2 4 5 5 3 2 2 1
3 3 2 2 2 2 2 2 1 1 1 2 3 4 4 4 3 3 3 3 3 3 3 2 2 2 1 2 2 2 1 2 1 1 2 4 5 5 3 2 2 2 1
3 2 2 2 2 2 2 2 1 1 3 4 4 4 4 4 4 3 3 3 3 3 3 2 2 2 1 1 1 1 1 2 2 2 3 4 4 3 3 3 2 1 1
2 2 1 1 1 1 2 2 2 2 4 4 5 5 4 4 3 3 4 4 4 4 3 3 2 2 2 1 1 1 0 1 1 3 3 2 2 2 2 2 1 1 1
3 2 1 1 1 1 0 0 1 2 4 4 4 3 2 3 3 3 4 7 8 9 10 9 6 4 4 4 4 3 2 2 3 2 2 3 3 2 2 2 2 2 2
Wind_Direction
88 92 77 46 18 20 18 4 5 1 3 358 339 334 329 325 318 316 321 321 311 309 303 300 307 304 280 256 250 253 238 223 196 178 257 263 238 248 259 266 277 201 178
38 80 74 46 30 18 16 5 3 358 1 346 329 315 317 308 307 314 321 326 324 316 308 310 309 303 291 275 264 259 229 233 193 167 166 232 265 253 233 233 253 257 210
22 45 52 44 30 24 19 5 359 357 360 347 349 337 328 322 331 327 327 323 315 313 305 307 303 295 289 276 265 250 224 229 230 198 180 179 207 230 247 213 219 234 226
62 65 60 46 24 32 27 5 4 6 2 351 356 341 337 338 327 327 323 321 325 331 322 310 301 292 283 282 271 253 230 214 224 226 220 217 166 168 226 247 218 214 219
86 66 77 65 31 35 29 7 2 9 360 343 330 322 348 335 325 332 330 332 334 335 330 321 302 289 278 273 273 271 247 224 218 212 199 213 219 214 179 205 220 223 226
95 72 75 84 50 37 25 4 7 4 350 337 335 349 354 342 337 339 342 336 329 331 344 339 323 313 304 289 276 269 250 238 229 223 209 194 191 194 188 194 194 215 240
107 91 67 82 61 36 18 356 5 2 356 346 345 350 355 350 345 346 335 333 333 336 345 341 325 324 320 306 295 280 260 247 235 222 218 213 214 197 185 178 180 200 244
129 127 111 100 81 40 20 358 6 355 347 338 347 357 358 354 344 336 332 337 330 331 343 330 321 317 317 311 311 293 276 257 245 237 226 213 215 203 191 182 169 173 214
146 148 136 126 108 66 31 15 2 345 342 343 349 358 351 349 340 338 339 334 332 338 344 327 320 318 319 312 311 291 283 282 251 237 237 228 219 210 195 183 174 167 185
150 142 135 127 118 117 112 60 340 328 335 345 348 354 354 356 343 337 342 343 337 339 332 331 332 332 328 314 304 288 272 289 275 237 228 229 224 217 201 185 187 182 179
143 137 134 125 117 110 158 169 244 353 6 1 350 356 357 353 346 341 347 343 339 341 338 340 338 337 336 331 329 324 327 298 294 279 243 237 222 205 204 193 187 191 176
142 146 138 135 128 163 289 313 28 47 29 356 343 359 352 354 352 348 346 338 338 337 340 341 340 341 341 336 335 323 314 299 297 301 288 264 247 217 213 201 200 195 189
168 168 149 151 164 205 211 330 46 36 22 5 358 0 358 2 351 342 341 342 345 346 349 352 355 349 348 348 348 343 328 306 292 293 309 309 296 259 253 232 214 196 195
173 163 154 173 172 206 169 117 77 51 24 2 345 355 352 359 349 342 343 347 347 348 349 357 3 3 6 6 1 348 337 326 315 313 316 327 218 252 269 236 242 201 184
177 177 178 181 176 183 150 133 135 259 298 347 5 12 4 5 355 343 341 352 352 350 351 0 4 7 14 14 6 346 336 327 317 308 292 273 185 206 221 211 216 205 187
184 188 181 172 192 174 159 163 171 205 244 144 51 28 5 355 343 333 338 350 349 344 352 359 8 13 18 10 10 356 328 319 313 310 308 269 208 194 218 223 223 202 190
171 173 191 184 193 152 146 156 167 192 215 163 120 62 15 352 341 342 346 342 342 348 355 359 11 18 17 8 3 357 338 320 319 320 317 327 39 30 341 265 239 216 208
147 158 184 172 166 151 141 152 167 174 163 100 81 112 59 351 339 337 331 330 337 348 351 355 356 359 9 9 5 353 342 342 350 6 6 23 45 27 11 334 296 175 178
118 125 147 147 159 123 121 187 194 162 150 129 292 148 135 279 309 317 321 324 336 337 334 336 334 348 15 17 10 2 336 344 6 26 33 40 45 21 11 353 322 151 169
97 108 131 156 150 134 133 257 246 155 148 161 219 197 187 239 262 289 302 303 308 312 315 321 336 358 21 34 21 8 345 358 3 18 42 46 36 16 6 349 351 109 290
109 124 156 158 138 138 183 257 273 86 117 139 195 230 230 239 236 247 269 284 292 302 305 310 308 331 22 58 45 26 13 357 351 1 14 23 20 12 359 354 1 327 258
129 142 165 168 164 171 221 260 250 132 121 168 237 253 253 258 254 235 252 265 275 282 283 286 290 269 169 122 112 50 11 349 346 346 358 1 358 355 349 349 341 343 11
142 154 177 193 188 184 216 266 244 191 214 227 237 242 244 241 232 233 247 255 260 265 274 279 285 281 213 160 173 201 296 325 325 326 326 321 322 329 326 311 309 335 10
132 149 177 208 212 192 192 244 263 243 239 243 246 244 241 244 233 218 228 239 252 265 276 281 282 278 270 191 167 215 244 276 294 297 297 297 296 292 294 297 281 245 204
108 122 170 226 250 218 192 210 232 255 263 260 255 250 237 233 241 233 223 228 229 218 227 251 272 288 283 196 132 144 323 351 351 328 307 285 275 265 256 256 247 217 171
87 98 103 302 308 325 17 5 250 256 273 278 279 278 270 247 234 241 250 236 232 232 228 227 229 244 238 203 204 216 245 276 309 323 286 285 275 264 252 243 242 226 200